GW6198 Weather Reports


Display with metric or nautical units.
time (UTC)temp
F
wind
direction
speed
MPH
gust
MPH
rain 1hr
in
rain 24hr
in
rain mn
in
humidity
%
barometer
mb
20260906215640 93 155 8.0 13.0 0.00 0.00 0.00 36 1015.1
20260906215138 93 159 13.0 16.0 0.00 0.00 0.00 35 1015.3
20260906214637 94 132 9.0 11.0 0.00 0.00 0.00 35 1015.1
20260906214132 94 195 11.0 20.0 0.00 0.00 0.00 35 1015.0
20260906213631 94 204 8.0 11.0 0.00 0.00 0.00 35 1015.1
20260906213126 94 185 13.0 13.0 0.00 0.00 0.00 35 1015.3
20260906212623 93 139 6.0 6.0 0.00 0.00 0.00 35 1015.4
20260906212120 94 156 10.0 15.0 0.00 0.00 0.00 35 1015.3
20260906211618 94 184 7.0 14.0 0.00 0.00 0.00 35 1015.5
20260906211114 94 188 3.0 12.0 0.00 0.00 0.00 35 1015.5
20260906210610 94 185 9.0 14.0 0.00 0.00 0.00 35 1015.9
20260906210104 94 123 8.0 9.0 0.00 0.00 0.00 35 1015.9
20260906205600 94 133 14.0 17.0 0.00 0.00 0.00 35 1015.8
20260906205056 93 131 6.0 16.0 0.00 0.00 0.00 36 1015.8
20260906204555 93 137 10.0 12.0 0.00 0.00 0.00 36 1016.2
20260906204050 92 157 4.0 6.0 0.00 0.00 0.00 36 1016.3
20260906203549 94 154 11.0 13.0 0.00 0.00 0.00 34 1016.2
20260906203044 93 149 6.0 16.0 0.00 0.00 0.00 35 1016.3
20260906202541 93 170 9.0 11.0 0.00 0.00 0.00 34 1016.2
20260906202036 93 162 2.0 7.0 0.00 0.00 0.00 35 1016.1
20260906201536 94 130 13.0 14.0 0.00 0.00 0.00 34 1016.4
20260906201035 94 180 6.0 13.0 0.00 0.00 0.00 34 1016.3
20260906200531 93 182 12.0 19.0 0.00 0.00 0.00 35 1016.3
20260906200027 93 184 10.0 15.0 0.00 0.00 0.00 34 1016.5
20260906195523 93 132 7.0 14.0 0.00 0.00 0.00 34 1016.5
20260906195019 93 171 6.0 9.0 0.00 0.00 0.00 34 1016.6
20260906194514 92 175 4.0 15.0 0.00 0.00 0.00 35 1016.8
20260906194010 93 181 9.0 13.0 0.00 0.00 0.00 35 1016.6
20260906193510 93 115 10.0 13.0 0.00 0.00 0.00 35 1017.0
20260906193005 92 127 13.0 20.0 0.00 0.00 0.00 36 1016.7
20260906192500 93 173 5.0 12.0 0.00 0.00 0.00 36 1016.8
20260906191959 92 152 5.0 13.0 0.00 0.00 0.00 37 1017.0
20260906191454 92 169 11.0 16.0 0.00 0.00 0.00 37 1016.8
20260906190953 92 163 7.0 15.0 0.00 0.00 0.00 38 1017.0
20260906190452 91 150 10.0 14.0 0.00 0.00 0.00 39 1017.1
20260906185948 90 135 13.0 19.0 0.00 0.00 0.00 40 1017.0
20260906185447 91 136 11.0 15.0 0.00 0.00 0.00 38 1017.1
20260906184946 92 135 14.0 16.0 0.00 0.00 0.00 38 1017.2
20260906184441 92 152 6.0 15.0 0.00 0.00 0.00 38 1017.4
20260906183936 90 183 10.0 13.0 0.00 0.00 0.00 40 1017.6
20260906183433 91 142 5.0 14.0 0.00 0.00 0.00 39 1017.4
20260906182928 91 138 9.0 15.0 0.00 0.00 0.00 39 1017.6
20260906182423 90 188 6.0 18.0 0.00 0.00 0.00 41 1017.6
20260906181919 91 174 8.0 12.0 0.00 0.00 0.00 39 1017.7
20260906181415 91 114 6.0 12.0 0.00 0.00 0.00 39 1017.7
20260906180910 90 149 9.0 16.0 0.00 0.00 0.00 41 1017.8
20260906180405 91 181 9.0 13.0 0.00 0.00 0.00 40 1018.0
20260906175903 91 176 9.0 11.0 0.00 0.00 0.00 40 1018.0
20260906175358 90 180 11.0 13.0 0.00 0.00 0.00 41 1018.0
20260906174857 90 154 7.0 15.0 0.00 0.00 0.00 41 1018.2
20260906174356 89 170 6.0 11.0 0.00 0.00 0.00 42 1018.3
20260906173851 91 189 13.0 16.0 0.00 0.00 0.00 39 1018.1
20260906173347 90 148 6.0 19.0 0.00 0.00 0.00 40 1018.3
20260906172845 91 152 7.0 16.0 0.00 0.00 0.00 39 1018.4
20260906172342 91 138 7.0 17.0 0.00 0.00 0.00 39 1018.0
20260906171837 90 131 9.0 10.0 0.00 0.00 0.00 41 1018.4
20260906171337 90 138 9.0 17.0 0.00 0.00 0.00 40 1018.2
20260906170833 90 157 6.0 13.0 0.00 0.00 0.00 41 1018.4
20260906170329 90 126 9.0 13.0 0.00 0.00 0.00 41 1018.4
20260906165825 89 175 5.0 11.0 0.00 0.00 0.00 43 1018.5
20260906165324 89 118 7.0 13.0 0.00 0.00 0.00 43 1018.4
20260906164819 89 159 6.0 16.0 0.00 0.00 0.00 44 1018.3
20260906164319 89 145 6.0 6.0 0.00 0.00 0.00 45 1018.3
20260906163815 89 186 10.0 11.0 0.00 0.00 0.00 45 1018.4
20260906163311 89 102 6.0 10.0 0.00 0.00 0.00 45 1018.1
20260906162809 88 169 7.0 7.0 0.00 0.00 0.00 47 1018.4
20260906162307 88 167 8.0 10.0 0.00 0.00 0.00 47 1018.3
20260906161802 88 183 5.0 7.0 0.00 0.00 0.00 48 1018.4
20260906161301 88 172 6.0 6.0 0.00 0.00 0.00 49 1018.2
20260906160801 88 172 3.0 5.0 0.00 0.00 0.00 50 1018.3
20260906160255 87 191 3.0 8.0 0.00 0.00 0.00 50 1018.3
20260906155753 87 147 3.0 6.0 0.00 0.00 0.00 50 1018.1
20260906155247 87 192 8.0 9.0 0.00 0.00 0.00 51 1018.4
20260906154743 87 140 5.0 11.0 0.00 0.00 0.00 51 1018.2
20260906154238 86 146 9.0 10.0 0.00 0.00 0.00 52 1018.2
20260906153736 86 180 3.0 8.0 0.00 0.00 0.00 52 1018.3
20260906153231 85 216 3.0 8.0 0.00 0.00 0.00 53 1018.1
20260906152726 85 187 4.0 9.0 0.00 0.00 0.00 53 1018.1
20260906152220 85 186 3.0 6.0 0.00 0.00 0.00 54 1018.1
20260906151715 85 131 6.0 8.0 0.00 0.00 0.00 54 1018.3
20260906151211 84 193 4.0 8.0 0.00 0.00 0.00 55 1018.1
20260906150706 84 189 6.0 7.0 0.00 0.00 0.00 56 1018.1
20260906150201 84 166 4.0 10.0 0.00 0.00 0.00 56 1017.9
20260906145700 84 161 5.0 8.0 0.00 0.00 0.00 56 1017.8
20260906145200 83 172 5.0 8.0 0.00 0.00 0.00 57 1017.8
20260906144659 83 191 4.0 6.0 0.00 0.00 0.00 58 1018.0
20260906144154 83 139 5.0 6.0 0.00 0.00 0.00 58 1017.9
20260906143649 83 154 6.0 7.0 0.00 0.00 0.00 58 1018.0
20260906143147 82 164 4.0 6.0 0.00 0.00 0.00 59 1017.9
20260906142646 82 144 2.0 6.0 0.00 0.00 0.00 60 1018.0
20260906142141 82 141 4.0 5.0 0.00 0.00 0.00 60 1018.0
20260906141640 81 122 4.0 6.0 0.00 0.00 0.00 61 1017.9
20260906141135 81 130 4.0 6.0 0.00 0.00 0.00 61 1018.0
20260906140634 80 168 4.0 6.0 0.00 0.00 0.00 63 1017.9
20260906140129 80 140 4.0 5.0 0.00 0.00 0.00 63 1017.9
20260906135626 79 147 3.0 5.0 0.00 0.00 0.00 64 1017.9
20260906135122 79 136 3.0 4.0 0.00 0.00 0.00 65 1018.0
20260906134618 78 132 3.0 5.0 0.00 0.00 0.00 65 1017.9
20260906134113 78 171 1.0 3.0 0.00 0.00 0.00 66 1017.9
20260906133608 77 133 5.0 6.0 0.00 0.00 0.00 67 1018.0
20260906133103 76 140 4.0 7.0 0.00 0.00 0.00 68 1017.8
20260906132558 76 139 4.0 5.0 0.00 0.00 0.00 69 1017.7
20260906132054 75 138 5.0 6.0 0.00 0.00 0.00 69 1017.7
20260906131549 75 135 4.0 7.0 0.00 0.00 0.00 70 1017.8
20260906131044 75 122 6.0 8.0 0.00 0.00 0.00 70 1017.5
20260906130543 75 122 3.0 6.0 0.00 0.00 0.00 70 1017.6
20260906130039 74 116 3.0 5.0 0.00 0.00 0.00 70 1017.5
20260906125536 74 160 2.0 5.0 0.00 0.00 0.00 71 1017.6
20260906125036 74 122 4.0 5.0 0.00 0.00 0.00 71 1017.5
20260906124532 73 134 4.0 4.0 0.00 0.00 0.00 71 1017.5
20260906124026 73 112 2.0 4.0 0.00 0.00 0.00 72 1017.4
20260906123525 73 113 1.0 3.0 0.00 0.00 0.00 72 1017.2
20260906123021 73 117 2.0 3.0 0.00 0.00 0.00 72 1017.4
20260906122515 73 145 2.0 2.0 0.00 0.00 0.00 72 1017.2
20260906122012 73 78 0.0 2.0 0.00 0.00 0.00 72 1017.1
20260906121507 73 340 0.0 2.0 0.00 0.00 0.00 71 1017.0
20260906121004 74 5 1.0 1.0 0.00 0.00 0.00 70 1017.0
20260906120504 74 36 1.0 2.0 0.00 0.00 0.00 70 1016.9
20260906120000 74 96 2.0 3.0 0.00 0.00 0.00 70 1017.0
20260906115455 74 123 2.0 3.0 0.00 0.00 0.00 70 1017.0
20260906114955 74 70 1.0 2.0 0.00 0.00 0.00 70 1017.0
20260906114450 74 83 2.0 4.0 0.00 0.00 0.00 70 1016.9
20260906113947 74 111 4.0 4.0 0.00 0.00 0.00 70 1016.8
20260906113445 74 114 2.0 2.0 0.00 0.00 0.00 69 1016.7
20260906112940 74 117 0.0 2.0 0.00 0.00 0.00 69 1016.9
20260906112436 74 101 0.0 1.0 0.00 0.00 0.00 70 1016.7
20260906111931 74 50 0.0 0.0 0.00 0.00 0.00 70 1016.8
20260906111430 74 343 0.0 1.0 0.00 0.00 0.00 70 1017.0
20260906110926 74 69 0.0 1.0 0.00 0.00 0.00 70 1016.9
20260906110421 74 304 0.0 0.0 0.00 0.00 0.00 70 1016.8
20260906105920 74 312 0.0 1.0 0.00 0.00 0.00 69 1016.7
20260906105416 75 345 0.0 2.0 0.00 0.00 0.00 68 1016.7
20260906104912 76 147 0.0 0.0 0.00 0.00 0.00 68 1016.6
20260906104410 76 75 0.0 2.0 0.00 0.00 0.00 67 1016.6
20260906103909 76 186 2.0 3.0 0.00 0.00 0.00 67 1016.5
20260906103407 76 187 2.0 3.0 0.00 0.00 0.00 67 1016.5
20260906102904 76 172 2.0 3.0 0.00 0.00 0.00 67 1016.4
20260906102402 76 166 2.0 4.0 0.00 0.00 0.00 67 1016.5
20260906101858 76 175 3.0 5.0 0.00 0.00 0.00 67 1016.4
20260906101353 76 167 2.0 3.0 0.00 0.00 0.00 67 1016.2
20260906100848 76 181 2.0 3.0 0.00 0.00 0.00 67 1016.3
20260906100347 76 200 3.0 3.0 0.00 0.00 0.00 67 1016.4
20260906095842 76 190 3.0 4.0 0.00 0.00 0.00 66 1016.4
20260906095338 76 180 3.0 4.0 0.00 0.00 0.00 66 1016.1
20260906094837 76 182 2.0 4.0 0.00 0.00 0.00 66 1016.3
20260906094333 76 186 3.0 4.0 0.00 0.00 0.00 66 1016.2
20260906093829 77 180 3.0 4.0 0.00 0.00 0.00 65 1016.3
20260906093325 77 197 3.0 4.0 0.00 0.00 0.00 65 1016.3
20260906092820 77 175 3.0 6.0 0.00 0.00 0.00 65 1016.2
20260906092319 77 178 4.0 6.0 0.00 0.00 0.00 65 1016.1
20260906091815 77 172 4.0 5.0 0.00 0.00 0.00 65 1016.2
20260906091311 77 170 3.0 4.0 0.00 0.00 0.00 64 1016.3
20260906090807 77 169 4.0 4.0 0.00 0.00 0.00 64 1016.3
20260906090306 77 166 3.0 4.0 0.00 0.00 0.00 64 1016.3
20260906085806 77 170 2.0 3.0 0.00 0.00 0.00 64 1016.3
20260906085307 78 184 3.0 3.0 0.00 0.00 0.00 64 1016.4
20260906084800 78 180 2.0 3.0 0.00 0.00 0.00 64 1016.4
20260906084300 78 176 2.0 4.0 0.00 0.00 0.00 64 1016.5
20260906083755 78 171 5.0 5.0 0.00 0.00 0.00 64 1016.5
20260906083250 78 163 4.0 5.0 0.00 0.00 0.00 63 1016.6
20260906082745 78 175 3.0 5.0 0.00 0.00 0.00 63 1016.5
20260906082240 79 176 4.0 6.0 0.00 0.00 0.00 62 1016.4
20260906081737 79 173 4.0 6.0 0.00 0.00 0.00 62 1016.4
20260906081236 79 172 3.0 5.0 0.00 0.00 0.00 62 1016.3
20260906080733 79 168 4.0 4.0 0.00 0.00 0.00 62 1016.3
20260906080230 79 168 2.0 3.0 0.00 0.00 0.00 62 1016.4
20260906075723 79 181 2.0 3.0 0.00 0.00 0.00 62 1016.4
20260906075217 79 178 2.0 3.0 0.00 0.00 0.00 62 1016.4
20260906074713 79 196 2.0 3.0 0.00 0.00 0.00 61 1016.5
20260906074212 79 198 3.0 4.0 0.00 0.00 0.00 61 1016.7
20260906073707 80 177 3.0 3.0 0.00 0.00 0.00 61 1016.5
20260906073202 80 205 1.0 4.0 0.00 0.00 0.00 61 1016.4
20260906072657 80 189 4.0 6.0 0.00 0.00 0.00 60 1016.6
20260906072153 80 181 5.0 7.0 0.00 0.00 0.00 60 1016.6
20260906071649 80 187 6.0 9.0 0.00 0.00 0.00 60 1016.7
20260906071148 80 182 6.0 8.0 0.00 0.00 0.00 60 1016.6
20260906070646 80 181 7.0 7.0 0.00 0.00 0.00 60 1016.6
20260906070141 80 182 4.0 6.0 0.00 0.00 0.00 59 1016.5
20260906065640 81 180 5.0 7.0 0.00 0.00 0.00 59 1016.7
20260906065136 81 175 7.0 9.0 0.00 0.00 0.00 59 1016.4
20260906064631 81 178 7.0 11.0 0.00 0.00 0.00 58 1016.6
20260906064126 81 169 7.0 11.0 0.00 0.00 0.00 58 1016.8
20260906063622 81 184 7.0 9.0 0.00 0.00 0.00 58 1016.7
20260906063117 81 161 7.0 8.0 0.00 0.00 0.00 57 1016.6
20260906062613 82 176 6.0 9.0 0.00 0.00 0.00 57 1016.8
20260906062112 82 174 7.0 11.0 0.00 0.00 0.00 56 1016.8
20260906061608 82 180 8.0 11.0 0.00 0.00 0.00 56 1017.0
20260906061108 82 185 5.0 11.0 0.00 0.00 0.00 56 1016.8
20260906060604 82 181 7.0 11.0 0.00 0.00 0.00 55 1016.9
20260906055557 82 188 6.0 12.0 0.00 0.00 0.00 55 1017.0
20260906055052 82 180 10.0 11.0 0.00 0.00 0.00 54 1017.0
20260906054547 83 195 9.0 13.0 0.00 0.00 0.00 54 1017.1
20260906054042 83 184 11.0 13.0 0.00 0.00 0.00 54 1017.1
20260906053538 83 191 9.0 13.0 0.00 0.00 0.00 53 1017.1
20260906053034 83 181 10.0 13.0 0.00 0.00 0.00 53 1016.9
20260906052529 83 188 7.0 12.0 0.00 0.00 0.00 53 1016.9
20260906052026 83 188 9.0 10.0 0.00 0.00 0.00 52 1016.9
20260906051527 83 186 10.0 11.0 0.00 0.00 0.00 52 1016.9
20260906051022 83 185 8.0 11.0 0.00 0.00 0.00 52 1016.9
20260906050517 83 181 8.0 13.0 0.00 0.00 0.00 52 1017.0
20260906050012 84 190 9.0 13.0 0.00 0.00 0.00 53 1016.9
20260906045510 83 180 9.0 11.0 0.00 0.00 0.00 53 1017.1
20260906045006 84 185 8.0 10.0 0.00 0.00 0.00 53 1017.4
20260906044501 84 179 5.0 12.0 0.00 0.00 0.00 53 1017.0
20260906043957 84 184 6.0 12.0 0.00 0.00 0.00 53 1017.2
20260906043452 84 189 9.0 16.0 0.00 0.00 0.00 52 1017.0
20260906042948 84 185 12.0 14.0 0.00 0.00 0.00 52 1017.0
20260906042447 85 183 9.0 14.0 0.00 0.00 0.00 52 1016.9
20260906041942 85 180 13.0 20.0 0.00 0.00 0.00 51 1016.8
20260906041438 85 183 9.0 19.0 0.00 0.00 0.00 51 1017.0
20260906040937 85 182 9.0 17.0 0.00 0.00 0.00 50 1016.8
20260906040433 86 170 10.0 21.0 0.00 0.00 0.00 49 1016.8
20260906035928 86 182 9.0 20.0 0.00 0.00 0.00 48 1016.8
20260906035429 87 173 13.0 20.0 0.00 0.00 0.00 46 1016.8
20260906034924 87 154 7.0 13.0 0.00 0.00 0.00 45 1016.7
20260906034419 87 161 10.0 12.0 0.00 0.00 0.00 44 1016.4
20260906033914 87 131 11.0 14.0 0.00 0.00 0.00 43 1016.3
20260906033414 86 118 12.0 17.0 0.00 0.00 0.00 44 1016.2
20260906032910 86 138 4.0 8.0 0.00 0.00 0.00 44 1016.2
20260906032406 86 115 4.0 6.0 0.00 0.00 0.00 44 1015.9
20260906031900 86 110 2.0 5.0 0.00 0.00 0.00 44 1015.9
20260906031356 87 122 2.0 4.0 0.00 0.00 0.00 43 1015.8
20260906030851 88 135 5.0 6.0 0.00 0.00 0.00 42 1015.8
20260906030346 88 130 5.0 6.0 0.00 0.00 0.00 42 1015.5
20260906025847 88 136 3.0 6.0 0.00 0.00 0.00 42 1015.6
20260906025340 88 125 4.0 5.0 0.00 0.00 0.00 42 1015.4
20260906024839 89 143 4.0 5.0 0.00 0.00 0.00 42 1015.4
20260906024339 89 134 3.0 5.0 0.00 0.00 0.00 41 1015.2
20260906023834 89 133 4.0 6.0 0.00 0.00 0.00 41 1015.1
20260906023330 90 140 5.0 7.0 0.00 0.00 0.00 41 1015.2
20260906022825 90 157 4.0 6.0 0.00 0.00 0.00 40 1015.1
20260906022320 90 136 7.0 8.0 0.00 0.00 0.00 40 1015.0
20260906021816 90 133 5.0 8.0 0.00 0.00 0.00 40 1015.2
20260906021316 91 139 7.0 9.0 0.00 0.00 0.00 39 1015.0
20260906020816 91 144 5.0 9.0 0.00 0.00 0.00 39 1014.9
20260906020316 91 145 8.0 11.0 0.00 0.00 0.00 38 1014.5
20260906015816 91 145 6.0 9.0 0.00 0.00 0.00 38 1014.5
20260906015315 91 148 5.0 7.0 0.00 0.00 0.00 37 1014.5
20260906014814 92 139 6.0 8.0 0.00 0.00 0.00 36 1014.5
20260906014310 92 161 3.0 8.0 0.00 0.00 0.00 36 1014.4
20260906013806 92 145 6.0 8.0 0.00 0.00 0.00 35 1014.4
20260906013307 92 153 6.0 9.0 0.00 0.00 0.00 35 1014.2
20260906012802 92 149 4.0 9.0 0.00 0.00 0.00 35 1014.3
20260906012257 93 145 5.0 8.0 0.00 0.00 0.00 35 1014.4
20260906011753 93 140 6.0 11.0 0.00 0.00 0.00 35 1014.1
20260906011252 93 146 6.0 10.0 0.00 0.00 0.00 35 1014.2
20260906010748 93 135 6.0 10.0 0.00 0.00 0.00 35 1014.2
20260906010244 93 151 6.0 9.0 0.00 0.00 0.00 34 1014.1
20260906005739 94 139 6.0 8.0 0.00 0.00 0.00 35 1014.3
20260906005238 94 157 4.0 11.0 0.00 0.00 0.00 34 1013.8
20260906004737 94 141 6.0 13.0 0.00 0.00 0.00 34 1014.1
20260906004232 94 131 7.0 12.0 0.00 0.00 0.00 34 1014.1
20260906003727 95 131 4.0 10.0 0.00 0.00 0.00 33 1014.0
20260906003223 95 137 4.0 8.0 0.00 0.00 0.00 33 1014.0
20260906002723 95 137 7.0 9.0 0.00 0.00 0.00 32 1014.1
20260906002218 95 122 10.0 11.0 0.00 0.00 0.00 33 1014.0
20260906001713 95 139 5.0 11.0 0.00 0.00 0.00 33 1014.1
20260906001213 95 138 6.0 11.0 0.00 0.00 0.00 33 1014.1
20260906000709 96 133 10.0 13.0 0.00 0.00 0.00 31 1013.9
20260906000204 96 137 6.0 10.0 0.00 0.00 0.00 31 1013.8
20260905235703 97 131 11.0 17.0 0.00 0.00 0.00 30 1013.8
20260905235158 96 159 4.0 9.0 0.00 0.00 0.00 32 1013.8
20260905234653 97 170 8.0 12.0 0.00 0.00 0.00 31 1013.7
20260905234148 97 136 6.0 11.0 0.00 0.00 0.00 31 1013.8
20260905233644 97 111 4.0 13.0 0.00 0.00 0.00 30 1013.6
20260905233143 97 114 4.0 13.0 0.00 0.00 0.00 29 1013.6
20260905232638 97 121 7.0 9.0 0.00 0.00 0.00 30 1013.7
20260905232134 97 175 7.0 13.0 0.00 0.00 0.00 30 1013.5
20260905231629 97 135 9.0 9.0 0.00 0.00 0.00 29 1013.6
20260905231125 97 159 4.0 13.0 0.00 0.00 0.00 29 1013.5
20260905230621 97 168 7.0 9.0 0.00 0.00 0.00 30 1013.6
20260905230118 97 156 7.0 11.0 0.00 0.00 0.00 30 1013.6
20260905225618 98 89 4.0 10.0 0.00 0.00 0.00 29 1013.5
20260905225113 97 181 5.0 12.0 0.00 0.00 0.00 30 1013.6
20260905224613 97 124 6.0 10.0 0.00 0.00 0.00 29 1013.5
20260905224112 97 103 3.0 4.0 0.00 0.00 0.00 30 1013.5
20260905223610 97 162 6.0 8.0 0.00 0.00 0.00 30 1013.7
20260905223106 98 119 10.0 13.0 0.00 0.00 0.00 30 1013.6
20260905222606 98 110 5.0 11.0 0.00 0.00 0.00 31 1013.7
20260905222101 98 134 8.0 11.0 0.00 0.00 0.00 30 1013.6
20260905221557 98 158 1.0 4.0 0.00 0.00 0.00 31 1013.7
20260905221053 97 182 5.0 8.0 0.00 0.00 0.00 30 1013.8
20260905220549 97 133 6.0 13.0 0.00 0.00 0.00 31 1013.8
20260905220045 97 78 7.0 14.0 0.00 0.00 0.00 30 1013.8